Time,TemperatureF,DewpointF,PressureIn,WindDirection,WindDirectionDegrees,WindSpeedMPH,WindSpeedGustMPH,Humidity,HourlyPrecipIn,Conditions,Clouds,dailyrainin,SoftwareType,DateUTC
2013-03-08 00:01:00,33.0,26.0,30.27,ESE,119,7.0,12.0,74,0.00,,,0.00,,2013-03-08 06:01:00,
2013-03-08 00:11:00,33.0,26.0,30.27,ESE,119,7.0,12.0,74,0.00,,,0.00,,2013-03-08 06:11:00,
2013-03-08 00:21:00,33.0,26.0,30.27,SE,124,7.0,14.0,74,0.00,,,0.00,,2013-03-08 06:21:00,
2013-03-08 00:32:00,32.0,25.0,30.27,SE,129,6.0,10.0,74,0.00,,,0.00,,2013-03-08 06:32:00,
2013-03-08 00:42:00,32.0,25.0,30.27,SE,129,6.0,10.0,74,0.00,,,0.00,,2013-03-08 06:42:00,
2013-03-08 00:51:00,32.0,25.0,30.27,SE,125,6.0,10.0,75,0.00,,,0.00,,2013-03-08 06:51:00,
2013-03-08 01:01:00,32.0,25.0,30.27,SE,129,4.0,11.0,75,0.00,,,0.00,,2013-03-08 07:01:00,
2013-03-08 01:11:00,32.0,25.0,30.27,SE,129,4.0,11.0,75,0.00,,,0.00,,2013-03-08 07:11:00,
2013-03-08 01:21:00,32.0,25.0,30.27,ESE,121,6.0,10.0,75,0.00,,,0.00,,2013-03-08 07:21:00,
2013-03-08 01:31:00,32.0,25.0,30.27,SE,124,5.0,8.0,76,0.00,,,0.00,,2013-03-08 07:31:00,
2013-03-08 01:42:00,32.0,25.0,30.27,SE,124,5.0,8.0,76,0.00,,,0.00,,2013-03-08 07:42:00,
2013-03-08 01:51:00,32.0,25.0,30.28,ESE,119,5.0,11.0,76,0.00,,,0.00,,2013-03-08 07:51:00,
2013-03-08 02:01:00,32.0,25.0,30.27,ESE,122,5.0,9.0,76,0.00,,,0.00,,2013-03-08 08:01:00,
2013-03-08 02:11:00,32.0,25.0,30.27,SE,124,5.0,10.0,76,0.00,,,0.00,,2013-03-08 08:11:00,
2013-03-08 02:21:00,32.0,25.0,30.27,SE,124,5.0,10.0,76,0.00,,,0.00,,2013-03-08 08:21:00,
2013-03-08 02:32:00,31.0,25.0,30.27,SE,129,5.0,10.0,77,0.00,,,0.00,,2013-03-08 08:32:00,
2013-03-08 02:41:00,31.0,25.0,30.27,SE,129,5.0,10.0,77,0.00,,,0.00,,2013-03-08 08:41:00,
2013-03-08 02:52:00,32.0,26.0,30.26,SE,127,7.0,8.0,77,0.00,,,0.00,,2013-03-08 08:52:00,
2013-03-08 03:03:00,31.0,25.0,30.26,SE,130,6.0,9.0,77,0.00,,,0.00,,2013-03-08 09:03:00,
2013-03-08 03:11:00,31.0,25.0,30.26,SE,130,6.0,9.0,77,0.00,,,0.00,,2013-03-08 09:11:00,
2013-03-08 03:21:00,31.0,25.0,30.25,SE,124,5.0,10.0,77,0.00,,,0.00,,2013-03-08 09:21:00,
2013-03-08 03:32:00,31.0,25.0,30.25,SE,126,6.0,7.0,78,0.00,,,0.00,,2013-03-08 09:32:00,
2013-03-08 03:42:00,31.0,25.0,30.25,SE,126,6.0,7.0,78,0.00,,,0.00,,2013-03-08 09:42:00,
2013-03-08 03:52:00,31.0,25.0,30.25,SE,137,4.0,8.0,78,0.00,,,0.00,,2013-03-08 09:52:00,
2013-03-08 04:01:00,31.0,25.0,30.24,SE,133,5.0,7.0,78,0.00,,,0.00,,2013-03-08 10:01:00,
2013-03-08 04:11:00,31.0,25.0,30.24,SE,133,5.0,7.0,78,0.00,,,0.00,,2013-03-08 10:11:00,
2013-03-08 04:21:00,31.0,25.0,30.24,SE,130,4.0,7.0,79,0.00,,,0.00,,2013-03-08 10:21:00,
2013-03-08 04:32:00,31.0,25.0,30.24,SE,127,4.0,7.0,79,0.00,,,0.00,,2013-03-08 10:32:00,
2013-03-08 04:41:00,31.0,25.0,30.24,SE,127,4.0,7.0,79,0.00,,,0.00,,2013-03-08 10:41:00,
2013-03-08 04:51:00,31.0,25.0,30.24,SE,134,4.0,8.0,79,0.00,,,0.00,,2013-03-08 10:51:00,
2013-03-08 05:01:00,31.0,25.0,30.24,SE,131,3.0,6.0,79,0.00,,,0.00,,2013-03-08 11:01:00,
2013-03-08 05:11:00,31.0,25.0,30.24,SE,131,3.0,6.0,79,0.00,,,0.00,,2013-03-08 11:11:00,
2013-03-08 05:21:00,31.0,25.0,30.23,SE,124,3.0,6.0,79,0.00,,,0.00,,2013-03-08 11:21:00,
2013-03-08 05:32:00,30.0,25.0,30.24,ESE,121,4.0,6.0,80,0.00,,,0.00,,2013-03-08 11:32:00,
2013-03-08 05:42:00,30.0,25.0,30.24,ESE,121,4.0,6.0,80,0.00,,,0.00,,2013-03-08 11:42:00,
2013-03-08 05:52:00,31.0,25.0,30.24,SE,124,4.0,6.0,79,0.00,,,0.00,,2013-03-08 11:52:00,
2013-03-08 06:01:00,31.0,26.0,30.25,SE,130,4.0,7.0,80,0.00,,,0.00,,2013-03-08 12:01:00,
2013-03-08 06:11:00,31.0,26.0,30.25,SE,130,4.0,7.0,80,0.00,,,0.00,,2013-03-08 12:11:00,
2013-03-08 06:22:00,31.0,26.0,30.25,SE,134,3.0,7.0,80,0.00,,,0.00,,2013-03-08 12:22:00,
2013-03-08 06:32:00,31.0,25.0,30.25,SE,127,5.0,9.0,79,0.00,,,0.00,,2013-03-08 12:32:00,
2013-03-08 06:43:00,31.0,25.0,30.25,SE,127,5.0,9.0,79,0.00,,,0.00,,2013-03-08 12:43:00,
2013-03-08 06:52:00,31.0,25.0,30.26,SE,126,4.0,9.0,79,0.00,,,0.00,,2013-03-08 12:52:00,
2013-03-08 07:01:00,31.0,25.0,30.26,SE,128,4.0,8.0,79,0.00,,,0.00,,2013-03-08 13:01:00,
2013-03-08 07:11:00,31.0,25.0,30.26,SE,128,4.0,8.0,79,0.00,,,0.00,,2013-03-08 13:11:00,
2013-03-08 07:21:00,31.0,26.0,30.26,SE,133,5.0,9.0,80,0.00,,,0.00,,2013-03-08 13:21:00,
2013-03-08 07:32:00,32.0,26.0,30.25,SE,127,5.0,9.0,79,0.00,,,0.00,,2013-03-08 13:32:00,
2013-03-08 07:42:00,32.0,26.0,30.25,SE,127,5.0,9.0,79,0.00,,,0.00,,2013-03-08 13:42:00,
2013-03-08 07:52:00,32.0,26.0,30.25,SE,128,5.0,9.0,79,0.00,,,0.00,,2013-03-08 13:52:00,
2013-03-08 08:02:00,34.0,28.0,30.24,SE,127,6.0,10.0,77,0.00,,,0.00,,2013-03-08 14:02:00,
2013-03-08 08:11:00,34.0,28.0,30.24,SE,127,6.0,10.0,77,0.00,,,0.00,,2013-03-08 14:11:00,
2013-03-08 08:22:00,34.0,27.0,30.24,SE,127,7.0,11.0,76,0.00,,,0.00,,2013-03-08 14:22:00,
2013-03-08 08:32:00,36.0,29.0,30.25,ESE,122,6.0,10.0,74,0.00,,,0.00,,2013-03-08 14:32:00,
2013-03-08 08:42:00,36.0,29.0,30.25,ESE,122,6.0,10.0,74,0.00,,,0.00,,2013-03-08 14:42:00,
2013-03-08 08:52:00,37.0,29.0,30.25,SE,138,5.0,8.0,73,0.00,,,0.00,,2013-03-08 14:52:00,
2013-03-08 09:03:00,39.0,30.0,30.25,SE,131,4.0,9.0,71,0.00,,,0.00,,2013-03-08 15:03:00,
2013-03-08 09:11:00,39.0,30.0,30.25,SE,125,4.0,10.0,71,0.00,,,0.00,,2013-03-08 15:11:00,
2013-03-08 09:22:00,39.0,30.0,30.25,SE,125,4.0,10.0,71,0.00,,,0.00,,2013-03-08 15:22:00,
2013-03-08 09:32:00,41.0,31.0,30.24,SE,136,4.0,10.0,68,0.00,,,0.00,,2013-03-08 15:32:00,
2013-03-08 09:42:00,41.0,31.0,30.24,SE,136,4.0,10.0,68,0.00,,,0.00,,2013-03-08 15:42:00,
2013-03-08 09:52:00,42.0,32.0,30.23,SE,136,3.0,8.0,67,0.00,,,0.00,,2013-03-08 15:52:00,
2013-03-08 10:01:00,42.0,31.0,30.23,SE,135,7.0,12.0,66,0.00,,,0.00,,2013-03-08 16:01:00,
2013-03-08 10:11:00,43.0,32.0,30.22,SE,140,5.0,10.0,65,0.00,,,0.00,,2013-03-08 16:11:00,
2013-03-08 10:21:00,43.0,32.0,30.22,SE,140,5.0,10.0,65,0.00,,,0.00,,2013-03-08 16:21:00,
2013-03-08 10:32:00,44.0,32.0,30.22,ESE,123,6.0,12.0,63,0.00,,,0.00,,2013-03-08 16:32:00,
2013-03-08 10:42:00,44.0,32.0,30.22,ESE,123,6.0,12.0,63,0.00,,,0.00,,2013-03-08 16:42:00,
2013-03-08 10:52:00,45.0,34.0,30.22,ESE,122,4.0,13.0,64,0.00,,,0.00,,2013-03-08 16:52:00,
2013-03-08 11:02:00,46.0,34.0,30.22,SE,137,5.0,11.0,62,0.00,,,0.00,,2013-03-08 17:02:00,
2013-03-08 11:11:00,46.0,34.0,30.22,SE,137,5.0,11.0,62,0.00,,,0.00,,2013-03-08 17:11:00,
2013-03-08 11:21:00,46.0,33.0,30.22,SE,129,4.0,11.0,61,0.00,,,0.00,,2013-03-08 17:21:00,
2013-03-08 11:32:00,48.0,34.0,30.22,SE,124,8.0,12.0,59,0.00,,,0.00,,2013-03-08 17:32:00,
2013-03-08 11:42:00,48.0,34.0,30.22,SE,124,8.0,12.0,59,0.00,,,0.00,,2013-03-08 17:42:00,
2013-03-08 11:52:00,48.0,35.0,30.22,SE,137,4.0,12.0,60,0.00,,,0.00,,2013-03-08 17:52:00,
2013-03-08 12:02:00,48.0,34.0,30.21,SE,130,5.0,10.0,58,0.00,,,0.00,,2013-03-08 18:02:00,
2013-03-08 12:11:00,48.0,34.0,30.21,SE,130,5.0,10.0,58,0.00,,,0.00,,2013-03-08 18:11:00,
2013-03-08 12:21:00,49.0,34.0,30.21,SE,130,4.0,8.0,57,0.00,,,0.00,,2013-03-08 18:21:00,
2013-03-08 12:32:00,49.0,35.0,30.20,SE,133,5.0,10.0,58,0.00,,,0.00,,2013-03-08 18:32:00,
2013-03-08 12:42:00,49.0,35.0,30.20,SE,133,5.0,10.0,58,0.00,,,0.00,,2013-03-08 18:42:00,
2013-03-08 12:52:00,50.0,35.0,30.20,SE,128,3.0,11.0,56,0.00,,,0.00,,2013-03-08 18:52:00,
2013-03-08 13:01:00,49.0,35.0,30.19,SE,138,2.0,11.0,58,0.00,,,0.00,,2013-03-08 19:01:00,
2013-03-08 13:11:00,49.0,35.0,30.19,SE,138,2.0,11.0,58,0.00,,,0.00,,2013-03-08 19:11:00,
2013-03-08 13:21:00,50.0,35.0,30.18,SE,144,5.0,15.0,57,0.00,,,0.00,,2013-03-08 19:21:00,
2013-03-08 13:32:00,50.0,35.0,30.18,ESE,114,6.0,11.0,57,0.00,,,0.00,,2013-03-08 19:32:00,
2013-03-08 13:41:00,50.0,35.0,30.18,ESE,114,6.0,11.0,57,0.00,,,0.00,,2013-03-08 19:41:00,
2013-03-08 13:52:00,51.0,35.0,30.17,ESE,121,7.0,11.0,55,0.00,,,0.00,,2013-03-08 19:52:00,
2013-03-08 14:01:00,50.0,35.0,30.16,SE,134,7.0,14.0,57,0.00,,,0.00,,2013-03-08 20:01:00,
2013-03-08 14:11:00,50.0,35.0,30.16,SE,134,7.0,14.0,57,0.00,,,0.00,,2013-03-08 20:11:00,
2013-03-08 14:21:00,49.0,34.0,30.16,ESE,122,8.0,13.0,57,0.00,,,0.00,,2013-03-08 20:21:00,
2013-03-08 14:32:00,48.0,35.0,30.16,SE,124,8.0,14.0,60,0.00,,,0.00,,2013-03-08 20:32:00,
2013-03-08 14:42:00,48.0,35.0,30.16,SE,124,8.0,14.0,60,0.00,,,0.00,,2013-03-08 20:42:00,
2013-03-08 14:52:00,48.0,35.0,30.15,SE,133,6.0,13.0,61,0.00,,,0.00,,2013-03-08 20:52:00,
2013-03-08 15:02:00,46.0,34.0,30.16,SE,126,6.0,14.0,62,0.00,,,0.00,,2013-03-08 21:02:00,
2013-03-08 15:11:00,46.0,34.0,30.16,SE,126,6.0,14.0,62,0.00,,,0.00,,2013-03-08 21:11:00,
2013-03-08 15:21:00,46.0,34.0,30.16,ESE,122,5.0,15.0,63,0.00,,,0.00,,2013-03-08 21:21:00,
2013-03-08 15:32:00,45.0,34.0,30.15,SE,135,9.0,16.0,64,0.00,,,0.00,,2013-03-08 21:32:00,
2013-03-08 15:42:00,45.0,34.0,30.15,SE,135,9.0,16.0,64,0.00,,,0.00,,2013-03-08 21:42:00,
2013-03-08 15:52:00,45.0,34.0,30.14,ESE,107,7.0,15.0,66,0.00,,,0.00,,2013-03-08 21:52:00,
2013-03-08 16:01:00,44.0,33.0,30.14,SE,126,11.0,15.0,66,0.00,,,0.00,,2013-03-08 22:01:00,
2013-03-08 16:11:00,44.0,33.0,30.14,SE,126,11.0,15.0,66,0.00,,,0.00,,2013-03-08 22:11:00,
2013-03-08 16:22:00,44.0,34.0,30.13,ESE,121,11.0,19.0,67,0.00,,,0.00,,2013-03-08 22:22:00,
2013-03-08 16:32:00,44.0,33.0,30.13,SE,135,10.0,14.0,66,0.00,,,0.00,,2013-03-08 22:32:00,
2013-03-08 16:42:00,44.0,33.0,30.13,SE,135,10.0,14.0,66,0.00,,,0.00,,2013-03-08 22:42:00,
2013-03-08 16:52:00,43.0,32.0,30.12,SE,128,8.0,13.0,66,0.00,,,0.00,,2013-03-08 22:52:00,
2013-03-08 17:01:00,43.0,32.0,30.11,ESE,121,10.0,16.0,66,0.00,,,0.00,,2013-03-08 23:01:00,
2013-03-08 17:11:00,43.0,32.0,30.11,ESE,121,10.0,16.0,66,0.00,,,0.00,,2013-03-08 23:11:00,
2013-03-08 17:21:00,43.0,32.0,30.11,ESE,123,8.0,16.0,66,0.00,,,0.00,,2013-03-08 23:21:00,
2013-03-08 17:32:00,43.0,33.0,30.13,SE,138,5.0,13.0,67,0.00,,,0.00,,2013-03-08 23:32:00,
2013-03-08 17:42:00,43.0,33.0,30.13,SE,138,5.0,13.0,67,0.00,,,0.00,,2013-03-08 23:42:00,
2013-03-08 17:52:00,43.0,33.0,30.12,SE,125,7.0,11.0,67,0.00,,,0.00,,2013-03-08 23:52:00,
2013-03-08 18:02:00,43.0,33.0,30.12,SE,133,7.0,11.0,67,0.00,,,0.00,,2013-03-09 00:02:00,
2013-03-08 18:11:00,43.0,33.0,30.12,SE,133,7.0,11.0,67,0.00,,,0.00,,2013-03-09 00:11:00,
2013-03-08 18:22:00,43.0,33.0,30.11,SE,127,7.0,12.0,68,0.00,,,0.00,,2013-03-09 00:22:00,
2013-03-08 18:32:00,43.0,33.0,30.11,SE,127,6.0,10.0,68,0.00,,,0.00,,2013-03-09 00:32:00,
2013-03-08 18:42:00,43.0,33.0,30.11,SE,127,6.0,10.0,68,0.00,,,0.00,,2013-03-09 00:42:00,
2013-03-08 18:52:00,43.0,33.0,30.11,SE,125,6.0,13.0,68,0.00,,,0.00,,2013-03-09 00:52:00,
2013-03-08 19:01:00,43.0,33.0,30.11,SE,126,5.0,14.0,68,0.00,,,0.00,,2013-03-09 01:01:00,
2013-03-08 19:12:00,43.0,33.0,30.12,SE,127,5.0,11.0,67,0.00,,,0.00,,2013-03-09 01:12:00,
2013-03-08 19:21:00,43.0,33.0,30.12,SE,127,5.0,11.0,67,0.00,,,0.00,,2013-03-09 01:21:00,
2013-03-08 19:32:00,44.0,34.0,30.11,ESE,118,5.0,11.0,67,0.00,,,0.00,,2013-03-09 01:32:00,
2013-03-08 19:41:00,44.0,34.0,30.11,ESE,118,5.0,11.0,67,0.00,,,0.00,,2013-03-09 01:41:00,
2013-03-08 19:51:00,43.0,33.0,30.11,SE,140,4.0,8.0,68,0.00,,,0.00,,2013-03-09 01:51:00,
2013-03-08 20:01:00,43.0,33.0,30.10,ESE,119,5.0,11.0,68,0.00,,,0.00,,2013-03-09 02:01:00,
2013-03-08 20:11:00,43.0,33.0,30.10,ESE,119,5.0,11.0,68,0.00,,,0.00,,2013-03-09 02:11:00,
2013-03-08 20:21:00,43.0,33.0,30.10,SE,125,6.0,12.0,67,0.00,,,0.00,,2013-03-09 02:21:00,
2013-03-08 20:31:00,43.0,33.0,30.09,SE,126,5.0,14.0,68,0.00,,,0.00,,2013-03-09 02:31:00,
2013-03-08 20:41:00,43.0,34.0,30.08,SE,132,6.0,12.0,69,0.00,,,0.00,,2013-03-09 02:41:00,
2013-03-08 20:51:00,43.0,34.0,30.08,SE,132,6.0,12.0,69,0.00,,,0.00,,2013-03-09 02:51:00,
2013-03-08 21:01:00,43.0,34.0,30.08,SE,126,4.0,14.0,70,0.00,,,0.00,,2013-03-09 03:01:00,
2013-03-08 21:11:00,43.0,34.0,30.08,SE,126,4.0,14.0,70,0.00,,,0.00,,2013-03-09 03:11:00,
2013-03-08 21:21:00,43.0,34.0,30.08,SE,145,4.0,10.0,70,0.00,,,0.00,,2013-03-09 03:21:00,
2013-03-08 21:31:00,42.0,34.0,30.07,SE,126,5.0,12.0,72,0.00,,,0.00,,2013-03-09 03:31:00,
2013-03-08 21:41:00,42.0,34.0,30.07,SE,126,5.0,12.0,72,0.00,,,0.00,,2013-03-09 03:41:00,
2013-03-08 21:52:00,42.0,34.0,30.06,SE,129,5.0,10.0,73,0.00,,,0.00,,2013-03-09 03:52:00,
2013-03-08 22:01:00,42.0,34.0,30.07,SE,133,3.0,12.0,74,0.00,,,0.00,,2013-03-09 04:01:00,
2013-03-08 22:11:00,42.0,34.0,30.07,SE,133,3.0,12.0,74,0.00,,,0.00,,2013-03-09 04:11:00,
2013-03-08 22:22:00,43.0,35.0,30.07,SSE,148,5.0,9.0,73,0.00,,,0.00,,2013-03-09 04:22:00,
2013-03-08 22:32:00,44.0,35.0,30.07,SSE,154,4.0,11.0,71,0.00,,,0.00,,2013-03-09 04:32:00,
2013-03-08 22:41:00,44.0,35.0,30.07,SSE,154,4.0,11.0,71,0.00,,,0.00,,2013-03-09 04:41:00,
2013-03-08 22:51:00,44.0,35.0,30.06,SE,136,2.0,7.0,71,0.00,,,0.00,,2013-03-09 04:51:00,
2013-03-08 23:02:00,44.0,36.0,30.04,SE,133,4.0,10.0,72,0.00,,,0.00,,2013-03-09 05:02:00,
2013-03-08 23:11:00,44.0,36.0,30.04,SE,133,4.0,10.0,72,0.00,,,0.00,,2013-03-09 05:11:00,
2013-03-08 23:22:00,44.0,36.0,30.04,SE,140,5.0,11.0,74,0.00,,,0.00,,2013-03-09 05:22:00,
2013-03-08 23:31:00,43.0,37.0,30.03,SE,138,5.0,9.0,79,0.00,,,0.00,,2013-03-09 05:31:00,
2013-03-08 23:42:00,43.0,37.0,30.03,SE,138,5.0,9.0,79,0.00,,,0.00,,2013-03-09 05:42:00,
2013-03-08 23:52:00,43.0,37.0,30.03,ESE,120,3.0,9.0,80,0.00,,,0.00,,2013-03-09 05:52:00,